Погода в Эр-Рашидии

Марокко     31°55′11″N   4°26′31″W
темп.,
°C
ветер,
м/с
пор.,
м/с
влажн.,
%
обл.,
%
осадки,
мм/ч
давл.,
гПа
погр.,
м
13 мая, чт
чт1300:00+21с2225100 0.0 101722
03:00+19всв222783 0.0 101614
06:00+18ссв113017 0.0 101711
09:00+22ю232264 0.0 1017937
12:00+26ююз571768 0.0 10142107
15:00+28юз4614100 0.0 10113100
18:00+28ю3414100 0.0 10103365
21:00+25всв2318100 0.0 1013142
14 мая, пт
пт1400:00+22с332491 0.0 101364
03:00+19ссв333186 0.0 101434
06:00+18с2234100 0.0 101536
09:00+23вюв2222100 0.0 1015881
12:00+26ю4515100 0.0 10141774
15:00+28ююз4412100 0.0 10123129
18:00+28ююв5412100 0.0 10123147
21:00+24вюв2315100 0.0 101424
15 мая, сб
сб1500:00+23в2216100 0.0 101411
03:00+21ссв3319100 0.0 101513
06:00+20ссв22242 0.0 101712
09:00+26вюв24150 0.0 10171010
12:00+29ююв66110 0.0 10153507
15:00+31ююв8795 0.0 10134349
18:00+29ююв56926 0.0 10134321
21:00+25в461350 0.0 101588
16 мая, вс
вс1600:00+22св22156 0.0 101514
04:00+21с33160 0.0 101412
07:00+21с22170 0.0 101612
10:00+26в46140 0.0 10161378
13:00+30вюв56110 0.0 10143120
16:00+31юв32936 0.0 10104852
19:00+31ююв53983 0.0 10104456
22:00+25с813191 0.0 1014313
17 мая, пн
пн1701:00+24ссз562120 0.0 101483
04:00+21с22246 0.0 101311
07:00+22с33230 0.0 101517
10:00+27с45180 0.0 10151065
13:00+31ссв54100 0.0 10143492
16:00+32ссв5481 0.0 10124171
19:00+31св65916 0.0 10122707
22:00+25с58230 0.0 1016214